Volver al catálogo

STARLINK-30520

ActivoComunicacionesVLEO
NORAD 58010·PAYLOAD·🇺🇸 United States

Lanzado Oct 5, 2023 desde Cape Canaveral Space Force Station

Loading…

Próximos Pases (próximas 24 horas)

TLE

ActualizadoSource: CelesTrak SupGP

Época: Sep 15, 2026, 03:14 UTC

1 58010C 23153V   26258.13520833 -.00057146  00000+0 -20695-2 0  2582
2 58010  43.0037  77.0803 0001932 268.3782 334.4306 15.27611673    12

Sigue STARLINK-30520 en tiempo real con AllMySat

Download on the App Store